GW3823 Weather Reports


time (UTC)temp
C
wind
direction
speed
KPH
gust
KPH
rain 1hr
cm
rain 24hr
cm
rain mn
cm
humidity
%
barometer
mb
20260505070306 0 60 1.6 3.2 0.61 2.54 1.12 96 1006.0
20260505065306 0 112 0.0 1.6 0.38 1.96 0.53 96 1006.2
20260505064806 1 72 1.6 1.6 0.38 1.96 0.53 96 1006.2
20260505063806 1 73 0.0 1.6 0.43 1.96 0.53 95 1014.0
20260505063306 0 120 0.0 3.2 0.46 1.96 0.53 89 1006.1
20260505062806 0 189 0.0 8.0 0.46 1.96 0.53 95 1006.3
20260505062307 1 163 4.8 8.0 0.46 1.96 0.53 95 1006.3
20260505061806 1 195 3.2 8.0 0.48 1.96 0.53 95 1010.6
20260505061306 1 178 1.6 4.8 0.48 1.96 0.53 95 1006.4
20260505060806 1 136 1.6 3.2 0.48 1.96 0.53 95 1006.1
20260505060306 1 125 1.6 3.2 0.46 1.93 0.51 95 1012.2
20260505055806 1 161 1.6 4.8 0.18 1.60 0.18 87 1006.2
20260505055305 1 159 3.2 8.0 0.18 1.57 0.15 95 1014.3
20260505054805 2 156 3.2 9.7 0.15 1.57 0.15 84 1006.1
20260505054306 2 153 3.2 8.0 0.15 1.52 0.10 95 1014.6
20260505053806 3 200 1.6 3.2 0.15 1.52 0.10 88 1006.0
20260505053306 2 88 1.6 3.2 0.15 1.50 0.08 95 1010.9
20260505052806 2 61 0.0 1.6 0.15 1.50 0.08 95 1006.2
20260505051306 3 237 0.0 1.6 0.15 1.47 0.05 95 1006.2
20260505050306 2 114 0.0 4.8 0.18 1.47 0.05 86 1006.3
20260505040806 3 59 4.8 4.8 0.10 1.32 1.32 92 1013.3
20260505040305 3 64 3.2 8.0 0.13 1.32 1.32 93 1006.1
20260505035806 3 23 1.6 9.7 0.13 1.27 1.27 92 1007.5
20260505035306 2 61 4.8 9.7 0.13 1.27 1.27 94 1006.3
20260505034305 2 47 4.8 8.0 0.13 1.27 1.27 93 1006.2
20260505033806 3 59 4.8 8.0 0.13 1.24 1.24 92 1007.1
20260505033306 3 46 3.2 8.0 0.15 1.24 1.24 91 1007.7
20260505032806 3 58 4.8 8.0 0.15 1.24 1.24 92 1006.4
20260505032306 3 60 4.8 9.7 0.15 1.22 1.22 92 1007.4
20260505031806 2 77 3.2 4.8 0.18 1.22 1.22 93 1008.2
20260505031306 3 69 0.0 8.0 0.18 1.22 1.22 92 1006.9
20260505030305 3 55 4.8 8.0 0.20 1.19 1.19 92 1006.5
20260505024306 4 76 4.8 9.7 0.33 1.12 1.12 93 1007.4
20260505023806 3 73 4.8 8.0 0.43 1.12 1.12 92 1006.2
20260505023305 3 84 4.8 8.0 0.51 1.12 1.12 92 1006.9
20260505022305 3 95 1.6 8.0 0.66 1.07 1.07 92 1006.7
20260505021805 4 68 4.8 9.7 0.66 1.04 1.04 92 1007.4
20260505021305 3 53 8.0 9.7 0.66 1.02 1.02 79 1006.1
20260505020306 3 222 1.6 4.8 0.64 0.97 0.97 80 1005.9
20260505015806 4 15 1.6 8.0 0.61 0.91 0.91 91 1006.7
20260505015306 3 79 3.2 8.0 0.58 0.91 0.91 89 1005.5
20260505014805 3 312 3.2 25.7 0.53 0.86 0.86 77 1006.1
20260505014307 4 65 11.3 25.7 0.48 0.81 0.81 87 1007.1
20260505013805 3 63 9.7 27.4 0.36 0.69 0.69 86 1005.9
20260505013306 4 96 9.7 27.4 0.25 0.58 0.58 85 1006.6
20260505012306 5 37 9.7 35.4 0.08 0.41 0.41 80 1006.2
20260505011805 5 66 27.4 35.4 0.05 0.38 0.38 78 1004.7
20260505011305 6 67 9.7 33.8 0.03 0.36 0.36 73 1004.3
20260505010805 7 62 20.9 32.2 0.03 0.36 0.36 68 1006.3
20260505010306 7 73 14.5 32.2 0.03 0.36 0.36 68 1005.1
20260505005805 9 47 8.0 16.1 0.00 0.33 0.33 73 1005.9
20260505005306 8 250 3.2 8.0 0.00 0.33 0.33 74 1004.8
20260505004805 9 210 3.2 12.9 0.00 0.33 0.33 74 1005.7
20260505004305 8 164 6.4 11.3 0.00 0.33 0.33 71 1004.6
20260505003805 14 231 3.2 4.8 0.00 0.33 0.33 67 1005.3
20260505003306 8 206 4.8 8.0 0.00 0.33 0.33 68 1004.1
20260505002306 14 17 1.6 8.0 0.00 0.33 0.33 49 1005.7
20260505001805 14 29 1.6 9.7 0.00 0.33 0.33 66 1004.6
20260505001305 14 22 4.8 9.7 0.00 0.33 0.33 49 1005.4
20260505000805 14 14 4.8 9.7 0.00 0.33 0.33 65 1004.4
20260505000306 14 219 3.2 8.0 0.00 0.33 0.33 65 1005.4
20260504235804 9 354 3.2 8.0 0.00 0.33 0.33 67 1004.6
20260504234806 9 23 3.2 8.0 0.00 0.33 0.33 65 1004.4
20260504234305 10 276 3.2 11.3 0.00 0.33 0.33 68 1005.5
20260504233305 9 192 3.2 11.3 0.00 0.33 0.33 68 1005.1
20260504232805 10 146 4.8 8.0 0.00 0.33 0.33 68 1005.8
20260504232306 9 62 4.8 11.3 0.00 0.33 0.33 69 1004.8
20260504231806 10 22 3.2 9.7 0.00 0.33 0.33 53 1005.8
20260504231306 8 25 3.2 8.0 0.00 0.33 0.33 68 1004.7
20260504225805 8 40 4.8 14.5 0.05 0.33 0.33 71 1004.8
20260504225305 9 5 4.8 12.9 0.05 0.33 0.33 74 1006.7
20260504224805 8 19 3.2 9.7 0.05 0.33 0.33 73 1005.6
20260504224305 8 64 3.2 9.7 0.05 0.33 0.33 75 1007.0
20260504223305 8 212 4.8 9.7 0.05 0.33 0.33 77 1006.5
20260504222306 7 44 4.8 12.9 0.05 0.33 0.33 77 1005.8
20260504221806 7 65 8.0 12.9 0.05 0.33 0.33 79 1007.1
20260504221305 7 43 8.0 12.9 0.05 0.33 0.33 80 1005.8
20260504220805 7 27 1.6 12.9 0.05 0.33 0.33 84 1007.1
20260504220305 6 162 9.7 19.3 0.05 0.33 0.33 71 1006.1
20260504215805 7 176 12.9 25.7 0.13 0.28 0.28 80 1008.0
20260504215305 7 163 9.7 19.3 0.13 0.28 0.28 73 1005.7
20260504214804 8 137 4.8 16.1 0.13 0.28 0.28 70 1005.6
20260504214305 8 148 9.7 19.3 0.13 0.28 0.28 65 1005.2
20260504213806 10 234 3.2 9.7 0.13 0.28 0.28 60 1005.3
20260504213306 9 181 3.2 9.7 0.13 0.28 0.28 58 1010.4
20260504212804 9 103 1.6 8.0 0.13 0.28 0.28 65 1005.2
20260504212306 8 210 3.2 4.8 0.13 0.28 0.28 58 1005.1
20260504211804 8 226 3.2 8.0 0.13 0.28 0.28 64 1005.4
20260504211305 9 162 3.2 9.7 0.13 0.28 0.28 56 1013.6
20260504210805 9 202 3.2 9.7 0.13 0.28 0.28 57 1005.4
20260504210305 9 355 3.2 14.5 0.13 0.28 0.28 55 1012.5
20260504205805 10 197 8.0 14.5 0.10 0.15 0.15 66 1005.5
20260504205305 10 179 1.6 9.7 0.10 0.15 0.15 58 1005.4
20260504204805 8 114 3.2 14.5 0.10 0.15 0.15 61 1010.3
20260504204305 9 280 3.2 9.7 0.10 0.15 0.15 62 1005.7
20260504203805 8 201 4.8 11.3 0.10 0.15 0.15 73 1005.8
20260504203305 8 215 3.2 11.3 0.10 0.15 0.15 62 1007.0
20260504202805 8 172 4.8 11.3 0.10 0.15 0.15 68 1008.0
20260504202305 8 63 1.6 8.0 0.10 0.15 0.15 68 1006.9
20260504201805 8 31 4.8 12.9 0.13 0.15 0.15 68 1007.7
20260504201305 8 181 8.0 12.9 0.13 0.15 0.15 68 1006.6
20260504200804 8 314 4.8 11.3 0.13 0.15 0.15 72 1007.8
20260504200305 8 186 6.4 20.9 0.13 0.15 0.15 70 1006.8
20260504195805 7 134 11.3 22.5 0.03 0.05 0.05 69 1006.5
20260504195305 8 74 14.5 22.5 0.03 0.03 0.03 64 1006.3
20260504194805 8 183 14.5 32.2 0.03 0.03 0.03 60 1006.2
20260504194305 8 156 9.7 27.4 0.03 0.03 0.03 57 1006.3
20260504193805 8 171 9.7 33.8 0.03 0.03 0.03 73 1005.9
20260504193305 8 165 19.3 37.0 0.03 0.03 0.03 58 1010.8
20260504192304 10 166 27.4 35.4 0.03 0.03 0.03 52 1005.5
20260504191805 11 202 11.3 25.7 0.00 0.00 0.00 45 1005.4
20260504191304 11 170 11.3 25.7 0.00 0.00 0.00 45 1005.5
20260504190805 12 157 8.0 19.3 0.00 0.00 0.00 44 1013.2
20260504190304 11 182 4.8 14.5 0.00 0.00 0.00 45 1005.4
20260504185805 15 214 3.2 8.0 0.00 0.00 0.00 45 1013.0
20260504185305 14 253 4.8 14.5 0.00 0.00 0.00 46 1005.5
20260504184805 14 28 9.7 14.5 0.00 0.00 0.00 46 1005.4
20260504183806 14 267 4.8 14.5 0.00 0.00 0.00 49 1005.6
20260504183305 14 21 8.0 16.1 0.00 0.00 0.00 49 1005.9
20260504182805 14 47 9.7 19.3 0.00 0.00 0.00 52 1005.9
20260504182305 14 40 9.7 14.5 0.00 0.00 0.00 53 1007.4
20260504181805 14 18 9.7 16.1 0.00 0.00 0.00 38 1008.4
20260504180804 14 24 9.7 20.9 0.00 0.00 0.00 57 1008.3
20260504175805 12 335 4.8 12.9 0.00 0.00 0.00 67 1006.9
20260504175305 11 9 8.0 19.3 0.00 0.00 0.00 70 1015.3
20260504174804 11 37 9.7 14.5 0.00 0.00 0.00 49 1006.9
20260504174305 6 30 4.8 14.5 0.00 0.00 0.00 76 1007.1
20260504173805 11 18 8.0 12.9 0.00 0.00 0.00 76 1007.0
20260504172805 11 33 8.0 14.5 0.00 0.00 0.00 60 1007.4
20260504172304 11 46 11.3 14.5 0.00 0.00 0.00 79 1007.4
20260504171805 11 37 8.0 33.8 0.00 0.00 0.00 62 1007.6
20260504171304 11 153 32.2 33.8 0.00 0.00 0.00 83 1007.7
20260504170805 11 153 32.2 33.8 0.00 0.00 0.00 83 1015.4
20260504170304 11 147 8.0 8.0 0.00 0.00 0.00 81 1009.6
20260504160305 8 182 6.4 12.9 0.00 0.00 0.00 58 1007.1
20260504150805 5 105 1.6 4.8 0.00 0.00 0.00 55 1007.8
20260504150305 5 194 1.6 4.8 0.00 0.00 0.00 56 1011.8
20260504141304 3 198 3.2 8.0 0.00 0.00 0.00 61 1008.1
20260504140804 3 162 1.6 3.2 0.00 0.00 0.00 63 1008.1
20260504140305 3 194 0.0 3.2 0.00 0.00 0.00 61 1008.0
20260504130804 2 174 1.6 4.8 0.00 0.00 0.00 67 1007.5
20260504130305 2 205 1.6 3.2 0.00 0.00 0.00 67 1015.1
20260504120304 1 23 4.8 12.9 0.00 0.00 0.00 66 1007.3
20260504110304 1 47 3.2 8.0 0.00 0.00 0.00 67 1007.4
20260504100304 1 67 8.0 11.3 0.00 0.00 0.00 56 1013.7
20260504081806 1 66 8.0 20.9 0.00 0.00 0.00 61 1007.3
20260504081306 2 52 11.3 19.3 0.00 0.00 0.00 60 1007.3
20260504080806 2 49 6.4 14.5 0.00 0.00 0.00 59 1007.3
20260504080305 2 59 8.0 12.9 0.00 0.00 0.00 59 1007.3